Location: Shenandoah County Park
(38.9356°N, 78.4524°W)
Time: 00:26:15
(UTC-05:00)

A-11 Canister half - All Passes

Search period start: 10 December 2023 00:00
Search period end: 20 December 2023 00:00
Orbit: 1525 x 1683 km, 47.3° (Epoch: 09 December)

Date Brightness Start Highest point End Pass type
(mag) Time Alt. Az. Time Alt. Az. Time Alt. Az.
10 Dec - 01:57:03 10° WNW 02:04:57 28° SW 02:12:40 10° S night (unlit)
10 Dec - 15:10:07 10° S 15:17:09 22° SE 15:24:15 10° E daylight
10 Dec - 17:11:01 10° SW 17:21:02 71° SE 17:31:08 10° ENE visible
10 Dec - 19:16:34 10° W 19:26:37 61° NNW 19:36:36 10° ENE visible
10 Dec - 21:23:15 10° WNW 21:33:13 56° N 21:42:58 10° E visible
10 Dec - 23:28:59 10° WNW 23:39:07 86° SSW 23:48:54 10° SE visible
11 Dec - 01:35:08 10° WNW 01:43:17 30° SW 01:51:13 10° S night (unlit)
11 Dec - 14:48:46 10° SSE 14:55:29 20° SE 15:02:15 10° E daylight
11 Dec - 16:49:18 10° SW 16:59:16 69° SE 17:09:20 10° ENE daylight
11 Dec - 18:54:43 10° W 19:04:47 62° NNW 19:14:49 10° ENE visible
11 Dec - 21:01:25 10° WNW 21:11:23 55° N 21:21:09 10° E visible
11 Dec - 23:07:11 10° WNW 23:17:22 89° SSW 23:27:11 10° ESE visible
12 Dec - 01:13:15 10° WNW 01:21:36 32° SW 01:29:45 10° S night (unlit)
12 Dec - 14:27:29 10° SSE 14:33:49 19° ESE 14:40:11 10° E daylight
12 Dec - 16:27:36 10° SW 16:37:31 66° SE 16:47:33 10° ENE daylight
12 Dec - 18:32:52 10° W 18:42:58 63° NNW 18:53:01 10° ENE visible
12 Dec - 20:39:35 10° WNW 20:49:33 55° N 20:59:19 10° E visible
12 Dec - 22:45:24 10° WNW 22:55:35 88° NNE 23:05:27 10° ESE visible
13 Dec - 00:51:21 10° WNW 00:59:55 34° SW 01:08:16 10° S night (unlit)
13 Dec - 14:06:14 10° SSE 14:12:08 18° ESE 14:18:06 10° E daylight
13 Dec - 16:05:56 10° SW 16:15:47 63° SE 16:25:46 10° ENE daylight
13 Dec - 18:11:03 10° W 18:21:08 65° NNW 18:31:14 10° ENE visible
13 Dec - 20:17:45 10° WNW 20:27:42 54° N 20:37:30 10° E visible
13 Dec - 22:23:37 10° WNW 22:33:48 86° NNE 22:43:42 10° ESE visible
14 Dec - 00:29:29 10° WNW 00:38:14 36° SW 00:46:45 10° SSE night (unlit)
14 Dec - 13:45:03 10° SSE 13:50:29 16° ESE 13:55:57 10° E daylight
14 Dec - 15:44:15 10° SW 15:54:02 60° SE 16:03:57 10° ENE daylight
14 Dec - 17:49:13 10° WSW 17:59:18 66° NNW 18:09:26 10° ENE visible
14 Dec - 19:55:55 10° WNW 20:05:52 54° N 20:15:40 10° E visible
14 Dec - 22:01:48 10° WNW 22:12:02 83° NNE 22:21:57 10° ESE visible
15 Dec - 00:07:36 10° WNW 00:16:33 38° SW 00:25:13 10° SSE night (unlit)
15 Dec - 13:23:56 10° SSE 13:28:49 15° ESE 13:33:44 10° E daylight
15 Dec - 15:22:36 10° SSW 15:32:18 57° SE 15:42:09 10° ENE daylight
15 Dec - 17:27:24 10° WSW 17:37:29 68° NNW 17:47:38 10° ENE visible
15 Dec - 19:34:04 10° WNW 19:44:01 54° N 19:53:50 10° E visible
15 Dec - 21:40:01 10° WNW 21:50:14 81° NNE 22:00:11 10° ESE visible
15 Dec - 23:45:46 10° WNW 23:54:50 40° SW 00:03:41 10° SSE night (unlit)
16 Dec - 13:02:57 10° SSE 13:07:10 13° ESE 13:11:24 10° E daylight
16 Dec - 15:00:58 10° SSW 15:10:33 55° SE 15:20:21 10° ENE daylight
16 Dec - 17:05:35 10° WSW 17:15:40 69° NNW 17:25:51 10° ENE visible
16 Dec - 19:12:14 10° WNW 19:22:10 54° N 19:32:00 10° E visible
16 Dec - 21:18:13 10° WNW 21:28:27 79° NNE 21:38:26 10° ESE visible
16 Dec - 23:23:54 10° WNW 23:33:09 43° SW 23:42:07 10° SSE visible
17 Dec - 12:42:07 10° SE 12:45:30 12° ESE 12:48:55 10° E daylight
17 Dec - 14:39:19 10° SSW 14:48:50 52° SE 14:58:31 10° ENE daylight
17 Dec - 16:43:46 10° WSW 16:53:51 71° NNW 17:04:03 10° ENE daylight
17 Dec - 18:50:24 10° WNW 19:00:19 53° N 19:10:10 10° ENE visible
17 Dec - 20:56:26 10° WNW 21:06:39 76° NNE 21:16:38 10° ESE visible
17 Dec - 23:02:05 10° WNW 23:11:26 45° SW 23:20:33 10° SSE visible
18 Dec - 12:21:39 10° SE 12:23:51 11° ESE 12:26:04 10° ESE daylight
18 Dec - 14:17:42 10° SSW 14:27:06 50° SE 14:36:42 10° ENE daylight
18 Dec - 16:21:58 10° WSW 16:32:03 73° NNW 16:42:16 10° ENE daylight
18 Dec - 18:28:33 10° WNW 18:38:28 53° N 18:48:20 10° ENE visible
18 Dec - 20:34:38 10° WNW 20:44:51 74° NNE 20:54:51 10° ESE visible
18 Dec - 22:40:14 10° WNW 22:49:43 47° SW 22:58:57 10° SSE visible
19 Dec - 13:56:06 10° SSW 14:05:23 47° SE 14:14:53 10° ENE daylight
19 Dec - 16:00:11 10° WSW 16:10:14 75° NNW 16:20:28 10° ENE daylight
19 Dec - 18:06:44 10° WNW 18:16:37 53° N 18:26:30 10° ENE visible
19 Dec - 20:12:50 10° WNW 20:23:03 72° NNE 20:33:04 10° ESE visible
19 Dec - 22:18:25 10° WNW 22:28:00 50° SW 22:37:21 10° SSE visible
